Zurück zum Katalog

FREGAT DEB

LostUNKNOWN
NORAD 45866·DEBRIS·🇷🇺 Russia

Gestartet Jul 18, 2011 von Baikonur Cosmodrome

Loading…

Nächste Überflüge (nächste 24 Stunden)

TLE

VeraltetSource: Space-Track

Epoche: Jun 16, 2021, 22:41 UTC

1 45866U 11037CQ  21167.94541964  .00485533  00000-0  64157+0 0  9990
2 45866  50.7448  79.7865 1226521 112.7339 260.7654 11.94978955 40154

Verfolge FREGAT DEB in Echtzeit mit AllMySat

Download on the App Store